SCP
0 0 0 0 0 0 0 0 0 0 0 0 0 0 0 0 0 0 0 0 0 0 0 0 0 0 0 0 0 0 0 0 0 0 0 0 0 0 0 0 0 0 -0 -0
0 0 0 0 0 0 0 0 0 0 0 0 0 0 0 0 0 0 0 0 0 0 0 0 0 0 0 0 0 0 0 0 0 0 0 0 0 0 0 0 0 0 -0 -0
0 0 0 0 0 0 0 0 0 0 0 0 0 0 0 0 0 0 0 0 0 0 0 0 0 0 0 0 0 0 0 0 0 0 0 0 0 0 0 0 0 0 0 0
0 0 0 0 0 0 0 0 0 0 0 0 0 0 0 0 0 0 0 0 0 0 0 0 0 0 0 0 0 0 0 0 0 0 0 0 0 0 0 0 0 0 0 0
0 0 0 0 0 0 0 0 0 0 0 0 0 0 0 0 0 0 0 0 0 0 0 0 0 0 0 0 0 0 0 0 0 0 0 0 0 0 0 0 0 0 0 0
0 0 0 0 0 0 0 0 0 0 0 0 0 0 0 0 0 0 0 0 0 0 0 0 0 0 0 0 0 0 0 0 0 0 0 0 0 0 0 0 0 0 0 0
0 0 0 0 0 0 0 0 0 0 0 0 0 0 -0 -0 0 0 0 0 0 0 0 0 0 0 0 0 0 0 0 0 0 0 0 0 0 0 0 0 0 0 0 0
0 0 0 0 0 0 0 0 0 0 0 0 0 0 0 0 0 0 0 0 0 0 0 0 0 0 0 0 0 0 0 0 0 0 0 0 0 0 0 0 0 0 0 0
0 -0 -0 0 0 0 0 0 0 0 0 -0 0 0 0 0 0 0 0 0 0 0 0 0 0 0 0 0 0 0 0 0 0 0 0 0 0 0 0 0 0 0 0 0
0 -0 0 0 0 0 -0 0 -0 0 0 -0 0 0 -0 -0 0 0 0 0 0 0 0 0 0 0 0 0 0 0 0 0 0 0 0 0 0 0 0 0 0 0 0 0
0 0 0 0 0 0 0 0 0 -0 -0 -0 0 0 0 0 0 0 0 0 0 0 0 0 0 0 0 0 0 0 0 0 0 0 0 0 0 0 0 0 0 0 0 0
0 0 0 0 0 0 0 0 -0 -0 0 0 0 0 0 0 0 0 0 0 0 0 0 0 0 0 0 0 0 0 0 0 0 0 0 0 0 0 0 0 0 0 0 0
0 0 0 0 0 -0 0 0 0 0 0 0 0 0 0 0 0 0 0 0 0 0 0 0 0 0 0 0 0 0 0 0 0 0 0 0 0 0 0 0 0 0 0 0
0 0 0 -0 -0 -0 0 0 0 0 0 0 0 0 0 0 0 0 0 0 0 0 0 0 0 0 0 0 0 0 0 0 0 0 0 0 0 0 0 0 0 0 0 0
0 0 0 0 0 0 0 0 0 0 0 0 0 0 0 0 0 0 0 0 0 0 0 0 0 0 0 0 0 0 0 0 0 0 0 0 0 0 0 0 0 0 0 0
0 0 0 0 0 0 0 0 0 0 0 0 0 0 0 0 0 0 0 0 0 0 0 0 0 0 0 0 0 0 0 0 0 0 0 0 0 0 0 0 0 0 0 0
0 0 0 0 0 0 0 0 0 0 0 0 0 0 0 0 0 0 0 0 0 0 0 0 0 0 0 0 0 0 0 0 0 0 0 0 0 0 0 0 0 0 0 0
0 0 0 0 0 0 0 0 0 0 0 0 0 0 0 0 0 0 0 0 0 0 0 0 0 0 0 0 0 0 0 0 0 0 0 0 0 0 0 0 0 0 0 0
0 0 0 0 0 0 0 0 0 0 0 0 0 0 0 0 0 0 0 0 0 0 0 0 0 0 0 0 0 0 0 0 0 0 0 0 0 0 0 0 0 0 0 0
0 0 0 0 0 0 0 0 0 0 0 0 0 0 0 0 0 0 0 0 0 0 0 0 0 0 0 0 0 0 0 0 0 0 0 0 0 0 0 0 0 0 0 0
0 0 -0 0 0 0 0 0 0 0 0 0 0 0 0 0 0 0 0 0 0 0 0 0 0 0 0 0 0 0 0 0 0 0 0 0 0 0 0 0 0 0 0 0
-0 0 0 0 0 0 0 0 0 0 0 0 0 0 0 0 0 0 0 0 0 0 0 0 0 0 0 0 0 0 0 0 0 0 0 0 0 0 0 0 0 0 0 0
-0 -0 0 0 0 0 0 0 0 0 0 0 0 0 0 0 0 0 0 0 0 0 0 0 0 0 0 0 0 0 0 0 0 0 0 0 0 0 0 0 0 0 0 0
0 0 0 0 0 0 0 0 0 0 0 0 0 0 0 0 0 0 0 0 0 0 0 0 0 0 0 0 0 0 0 0 0 0 0 0 0 0 0 0 0 0 0 0
0 0 0 0 0 0 0 0 0 0 0 0 0 0 0 0 0 0 0 0 0 0 0 0 0 0 0 0 0 0 0 0 0 0 0 0 0 0 0 0 0 0 0 0
0 0 0 0 0 0 0 0 0 0 0 0 -0 -0 0 0 0 0 0 0 0 0 0 0 0 0 0 0 0 0 0 0 0 0 0 0 0 0 0 0 0 0 0 0
0 0 0 0 0 0 0 0 0 0 0 0 0 0 0 0 0 0 0 0 0 0 0 0 0 0 0 0 0 0 0 0 0 0 0 0 0 0 0 0 0 0 0 0
Wind_Speed_500mb
3 10 10 13 16 23 18 10 14 22 29 39 44 35 53 53 58 58 57 56 47 48 34 32 21 15 13 8 4 8 8 8 6 9 11 14 17 20 23 24 22 29 35 39
12 4 11 9 26 24 17 16 12 14 20 7 41 44 51 54 59 57 63 55 48 40 34 25 24 13 14 13 7 11 9 9 10 14 14 14 12 13 15 19 22 27 34 38
9 4 9 5 12 16 4 18 12 9 4 25 28 42 51 55 60 60 56 46 38 40 29 19 11 8 13 12 7 7 8 9 9 11 14 14 10 11 11 16 20 24 30 36
6 7 6 9 1 3 24 21 23 25 20 21 33 39 38 57 60 50 32 41 41 25 19 19 12 9 16 12 8 8 10 8 4 10 12 10 11 9 13 18 21 24 26 33
2 4 7 3 7 8 8 13 11 18 26 33 47 60 42 31 18 27 38 35 23 19 20 20 14 13 15 11 8 9 4 2 4 14 11 8 9 9 14 23 21 24 27 31
4 1 1 2 8 17 17 5 4 32 31 35 32 24 5 14 15 31 30 28 26 23 19 15 8 13 14 9 5 4 5 4 6 8 14 9 10 14 18 22 25 26 29 32
6 5 4 6 11 16 6 7 14 35 29 25 7 7 16 22 21 19 19 18 15 14 10 6 10 16 10 7 8 10 10 13 14 14 12 13 19 23 25 25 26 29 35 37
5 6 6 17 5 3 1 16 16 25 27 26 25 24 22 30 18 13 12 13 12 12 9 7 6 6 7 7 8 9 13 17 20 23 22 24 29 32 32 31 30 35 42 40
7 8 11 19 10 20 13 17 8 12 15 17 22 29 26 15 4 9 10 17 15 15 12 10 9 13 18 16 17 19 21 25 26 28 27 31 37 40 43 37 39 42 44 40
5 6 9 10 9 8 11 11 7 7 18 16 18 25 22 15 11 12 13 13 15 14 16 19 19 23 32 30 28 33 37 36 34 37 38 39 40 42 41 38 37 40 36 35
1 2 5 7 10 6 6 6 13 10 14 16 13 16 15 20 16 13 15 20 21 20 23 25 18 24 27 32 35 41 46 47 48 51 48 48 48 44 38 34 32 30 33 40
9 20 10 17 15 14 10 12 13 10 12 13 13 9 10 16 19 21 23 19 22 26 27 22 26 32 35 40 45 50 47 54 57 58 60 61 61 53 35 27 31 32 37 41
6 18 16 18 18 19 15 12 13 16 11 13 12 14 21 21 18 21 23 23 27 33 31 33 37 39 39 39 39 47 56 58 60 63 61 62 66 56 45 29 21 27 35 29
19 21 17 23 18 18 17 17 17 17 15 18 16 13 13 28 25 16 22 24 32 32 33 40 43 44 42 49 51 44 47 46 47 40 37 38 32 39 18 18 34 25 22 29
24 22 18 20 19 21 23 20 15 11 14 20 16 13 16 23 26 30 29 30 32 34 40 36 37 41 45 40 28 36 42 41 31 25 20 22 23 24 19 23 12 19 29 33
21 27 21 17 17 22 23 24 24 25 15 11 18 19 18 15 13 16 21 25 26 30 32 34 31 28 24 27 26 34 34 29 21 9 5 12 8 7 13 17 22 31 38 35
28 23 23 21 17 13 9 7 9 5 8 5 8 12 16 18 16 19 19 19 23 24 22 20 18 18 22 28 33 28 24 17 6 2 3 9 8 16 21 23 32 38 35 28
24 20 16 14 11 7 6 9 12 10 10 8 10 10 12 15 15 16 15 21 19 17 11 10 18 24 27 28 20 18 16 8 4 4 4 9 13 17 24 32 34 28 28 29
20 18 16 14 13 14 13 11 12 14 17 15 19 20 22 17 15 11 14 14 13 12 17 23 28 24 25 20 22 20 9 6 4 4 5 9 13 27 28 25 22 27 31 31
24 20 20 19 18 20 20 18 16 12 14 17 22 26 24 18 12 8 14 11 9 14 20 29 25 24 22 21 16 4 5 5 3 4 7 12 20 30 28 23 25 32 33 28
29 25 23 28 17 19 20 26 27 24 19 12 15 21 24 19 14 14 12 10 10 15 20 22 19 16 17 15 8 5 8 8 11 15 18 21 28 34 29 26 30 33 35 32
34 30 23 21 20 18 23 28 25 24 22 11 10 14 19 21 19 20 20 17 18 18 21 21 17 14 14 12 14 19 19 18 16 22 26 29 32 31 32 31 34 37 37 38
41 36 31 23 22 17 18 18 17 25 19 22 22 17 17 23 25 27 30 25 25 24 22 23 18 19 20 18 18 18 25 22 23 30 32 33 35 35 35 37 39 40 41 42
36 35 34 25 24 22 23 18 10 14 21 22 20 19 20 25 27 30 34 34 32 27 27 26 23 22 25 26 25 24 28 30 30 29 31 34 33 34 37 42 46 41 42 45
18 32 36 44 44 34 26 22 21 23 25 27 22 20 24 28 31 24 31 33 35 36 36 34 34 30 28 29 29 30 31 30 31 33 33 33 30 34 38 40 42 42 43 46
24 38 38 35 36 34 31 28 26 22 23 28 25 18 12 15 21 25 31 32 37 44 48 46 41 39 41 35 35 32 33 31 36 34 30 32 34 38 35 33 36 39 42 50
39 41 44 38 34 32 40 47 39 34 31 28 25 18 12 11 20 30 37 38 37 45 50 50 50 48 48 53 49 42 40 41 36 31 31 28 33 34 29 29 33 39 49 58
Wind_Direction_500mb
257 279 92 70 15 345 212 228 186 235 206 199 194 180 168 157 153 154 156 162 163 173 176 164 170 173 183 194 199 207 216 233 283 326 338 351 359 11 26 32 31 25 22 19
294 256 52 50 17 9 33 349 316 288 232 260 169 154 141 143 144 146 155 163 169 170 180 180 171 182 187 173 180 192 223 273 307 320 324 336 353 10 26 31 24 19 17 15
266 340 165 78 17 26 11 14 300 266 250 123 130 146 144 140 142 149 160 166 175 180 175 172 184 200 183 183 197 224 268 289 296 311 328 335 350 8 24 14 12 12 10 7
242 34 250 157 191 227 74 28 21 31 42 79 112 114 129 148 151 154 185 188 175 185 184 176 185 180 187 185 209 266 289 285 302 354 346 348 351 350 358 356 357 1 1 357
298 105 110 183 8 7 25 36 12 63 55 85 105 95 50 138 160 196 176 176 185 186 188 177 174 203 197 203 263 278 207 80 50 25 354 348 352 348 352 355 346 348 351 344
161 40 49 303 305 339 335 319 147 79 58 49 95 84 9 69 180 164 166 171 173 174 176 184 211 216 204 232 281 288 259 298 314 339 355 328 330 324 320 332 332 334 337 333
27 63 3 281 313 342 67 250 129 114 101 92 70 143 185 199 183 162 160 165 177 186 205 240 272 212 221 257 294 297 304 304 300 292 293 306 305 306 299 304 320 324 323 327
6 57 334 350 358 155 125 94 123 160 185 203 227 237 222 173 169 170 173 179 188 200 227 246 207 205 255 301 18 20 343 327 320 309 291 287 290 301 301 294 300 317 318 313
146 216 263 335 41 106 107 113 107 125 133 121 145 147 152 156 149 209 203 202 207 216 229 234 248 265 272 310 301 311 297 306 309 305 303 289 282 291 295 294 291 300 311 309
63 313 337 84 102 115 117 122 140 155 149 133 150 169 175 197 202 206 193 194 208 219 238 251 260 266 280 289 288 283 281 294 306 302 298 291 293 288 287 294 296 305 305 311
100 265 116 136 143 126 154 148 138 158 191 179 193 198 207 223 231 245 238 231 237 249 254 262 262 267 280 287 282 282 284 285 294 295 291 294 287 283 278 284 296 303 303 311
218 202 188 184 174 167 183 164 175 169 190 203 233 241 238 255 261 264 263 260 257 258 255 283 273 272 282 278 277 278 276 282 288 292 294 287 288 272 254 280 291 291 298 312
209 191 194 155 158 173 195 194 210 238 230 224 236 268 246 249 250 256 262 267 275 275 274 281 278 282 285 287 281 281 277 285 290 288 290 289 287 271 282 256 267 288 310 307
151 154 167 189 222 235 248 250 215 222 239 232 237 257 251 259 258 255 288 270 281 281 280 273 274 274 280 288 284 278 292 299 297 293 300 291 300 323 282 289 291 306 300 312
180 184 212 220 242 220 216 235 224 223 290 277 241 221 280 283 256 269 282 285 289 285 293 284 288 287 298 297 289 289 298 298 298 289 300 308 311 292 289 327 314 305 315 320
220 224 201 224 230 234 247 263 272 268 263 283 222 232 253 262 274 274 288 289 287 291 290 292 292 301 298 299 311 308 297 295 291 282 345 359 332 297 307 311 309 315 321 315
198 208 226 244 266 272 267 235 236 232 236 245 216 228 245 257 259 287 301 304 308 311 306 297 305 305 310 317 322 313 304 293 239 238 245 305 294 324 315 305 312 320 318 311
236 251 243 262 251 265 256 245 247 236 245 235 249 227 252 272 296 309 320 319 318 319 325 317 314 317 319 319 319 319 305 277 183 234 273 284 324 325 315 317 322 323 320 319
231 260 259 247 245 252 238 241 251 260 266 265 244 258 271 265 305 303 325 321 323 338 331 328 331 325 327 317 319 321 288 227 202 199 295 317 330 339 336 340 337 335 324 317
250 242 247 256 250 251 253 252 249 259 262 269 262 260 265 270 267 285 343 341 324 331 334 328 329 327 323 318 329 336 172 162 3 346 344 322 319 332 332 332 335 339 338 323
239 242 255 262 245 245 240 237 242 248 263 281 299 276 265 257 260 262 305 299 302 323 322 321 323 330 323 309 294 235 243 280 316 313 308 311 323 324 320 326 327 329 335 334
243 239 243 235 227 235 233 235 240 248 251 269 281 287 260 256 261 259 274 289 295 296 309 310 306 318 321 309 281 265 258 256 289 307 298 296 311 313 317 314 321 320 322 326
237 235 248 234 222 228 219 233 258 250 242 246 278 275 278 274 266 261 274 284 284 275 292 304 293 292 307 304 300 266 243 266 291 303 303 302 307 312 311 313 307 311 310 318
231 237 238 230 220 239 253 255 260 256 240 254 267 260 278 284 277 275 276 281 271 273 285 287 281 279 282 292 288 282 265 271 274 286 296 297 302 305 308 311 311 308 306 315
241 228 240 232 226 235 247 254 251 260 245 263 248 258 260 274 281 272 268 275 276 275 278 282 274 274 274 274 277 273 270 277 277 277 284 291 301 305 303 304 304 305 307 311
261 249 236 227 234 243 255 246 248 253 252 242 231 237 277 278 274 271 270 272 277 274 272 277 277 274 269 268 262 265 263 271 269 270 278 283 286 302 308 304 302 305 307 312
258 266 249 233 231 246 264 249 244 236 240 237 232 242 260 283 280 271 271 272 283 277 267 270 277 277 273 268 263 262 260 259 258 264 275 287 308 316 312 302 304 306 309 311
Wind_Speed_850mb
3 10 10 13 16 23 18 10 14 22 29 39 44 35 53 53 58 58 57 56 47 48 34 32 21 15 13 8 4 8 8 8 6 9 11 14 17 20 23 24 22 29 35 39
12 4 11 9 26 24 17 16 12 14 20 7 41 44 51 54 59 57 63 55 48 40 34 25 24 13 14 13 7 11 9 9 10 14 14 14 12 13 15 19 22 27 34 38
9 4 9 5 12 16 4 18 12 9 4 25 28 42 51 55 60 60 56 46 38 40 29 19 11 8 13 12 7 7 8 9 9 11 14 14 10 11 11 16 20 24 30 36
6 7 6 9 1 3 24 21 23 25 20 21 33 39 38 57 60 50 32 41 41 25 19 19 12 9 16 12 8 8 10 8 4 10 12 10 11 9 13 18 21 24 26 33
2 4 7 3 7 8 8 13 11 18 26 33 47 60 42 31 18 27 38 35 23 19 20 20 14 13 15 11 8 9 4 2 4 14 11 8 9 9 14 23 21 24 27 31
4 1 1 2 8 17 17 5 4 32 31 35 32 24 5 14 15 31 30 28 26 23 19 15 8 13 14 9 5 4 5 4 6 8 14 9 10 14 18 22 25 26 29 32
6 5 4 6 11 16 6 7 14 35 29 25 7 7 16 22 21 19 19 18 15 14 10 6 10 16 10 7 8 10 10 13 14 14 12 13 19 23 25 25 26 29 35 37
5 6 6 17 5 3 1 16 16 25 27 26 25 24 22 30 18 13 12 13 12 12 9 7 6 6 7 7 8 9 13 17 20 23 22 24 29 32 32 31 30 35 42 40
7 8 11 19 10 20 13 17 8 12 15 17 22 29 26 15 4 9 10 17 15 15 12 10 9 13 18 16 17 19 21 25 26 28 27 31 37 40 43 37 39 42 44 40
5 6 9 10 9 8 11 11 7 7 18 16 18 25 22 15 11 12 13 13 15 14 16 19 19 23 32 30 28 33 37 36 34 37 38 39 40 42 41 38 37 40 36 35
1 2 5 7 10 6 6 6 13 10 14 16 13 16 15 20 16 13 15 20 21 20 23 25 18 24 27 32 35 41 46 47 48 51 48 48 48 44 38 34 32 30 33 40
9 20 10 17 15 14 10 12 13 10 12 13 13 9 10 16 19 21 23 19 22 26 27 22 26 32 35 40 45 50 47 54 57 58 60 61 61 53 35 27 31 32 37 41
6 18 16 18 18 19 15 12 13 16 11 13 12 14 21 21 18 21 23 23 27 33 31 33 37 39 39 39 39 47 56 58 60 63 61 62 66 56 45 29 21 27 35 29
19 21 17 23 18 18 17 17 17 17 15 18 16 13 13 28 25 16 22 24 32 32 33 40 43 44 42 49 51 44 47 46 47 40 37 38 32 39 18 18 34 25 22 29
24 22 18 20 19 21 23 20 15 11 14 20 16 13 16 23 26 30 29 30 32 34 40 36 37 41 45 40 28 36 42 41 31 25 20 22 23 24 19 23 12 19 29 33
21 27 21 17 17 22 23 24 24 25 15 11 18 19 18 15 13 16 21 25 26 30 32 34 31 28 24 27 26 34 34 29 21 9 5 12 8 7 13 17 22 31 38 35
28 23 23 21 17 13 9 7 9 5 8 5 8 12 16 18 16 19 19 19 23 24 22 20 18 18 22 28 33 28 24 17 6 2 3 9 8 16 21 23 32 38 35 28
24 20 16 14 11 7 6 9 12 10 10 8 10 10 12 15 15 16 15 21 19 17 11 10 18 24 27 28 20 18 16 8 4 4 4 9 13 17 24 32 34 28 28 29
20 18 16 14 13 14 13 11 12 14 17 15 19 20 22 17 15 11 14 14 13 12 17 23 28 24 25 20 22 20 9 6 4 4 5 9 13 27 28 25 22 27 31 31
24 20 20 19 18 20 20 18 16 12 14 17 22 26 24 18 12 8 14 11 9 14 20 29 25 24 22 21 16 4 5 5 3 4 7 12 20 30 28 23 25 32 33 28
29 25 23 28 17 19 20 26 27 24 19 12 15 21 24 19 14 14 12 10 10 15 20 22 19 16 17 15 8 5 8 8 11 15 18 21 28 34 29 26 30 33 35 32
34 30 23 21 20 18 23 28 25 24 22 11 10 14 19 21 19 20 20 17 18 18 21 21 17 14 14 12 14 19 19 18 16 22 26 29 32 31 32 31 34 37 37 38
41 36 31 23 22 17 18 18 17 25 19 22 22 17 17 23 25 27 30 25 25 24 22 23 18 19 20 18 18 18 25 22 23 30 32 33 35 35 35 37 39 40 41 42
36 35 34 25 24 22 23 18 10 14 21 22 20 19 20 25 27 30 34 34 32 27 27 26 23 22 25 26 25 24 28 30 30 29 31 34 33 34 37 42 46 41 42 45
18 32 36 44 44 34 26 22 21 23 25 27 22 20 24 28 31 24 31 33 35 36 36 34 34 30 28 29 29 30 31 30 31 33 33 33 30 34 38 40 42 42 43 46
24 38 38 35 36 34 31 28 26 22 23 28 25 18 12 15 21 25 31 32 37 44 48 46 41 39 41 35 35 32 33 31 36 34 30 32 34 38 35 33 36 39 42 50
39 41 44 38 34 32 40 47 39 34 31 28 25 18 12 11 20 30 37 38 37 45 50 50 50 48 48 53 49 42 40 41 36 31 31 28 33 34 29 29 33 39 49 58
Wind_Direction_850mb
257 279 92 70 15 345 212 228 186 235 206 199 194 180 168 157 153 154 156 162 163 173 176 164 170 173 183 194 199 207 216 233 283 326 338 351 359 11 26 32 31 25 22 19
294 256 52 50 17 9 33 349 316 288 232 260 169 154 141 143 144 146 155 163 169 170 180 180 171 182 187 173 180 192 223 273 307 320 324 336 353 10 26 31 24 19 17 15
266 340 165 78 17 26 11 14 300 266 250 123 130 146 144 140 142 149 160 166 175 180 175 172 184 200 183 183 197 224 268 289 296 311 328 335 350 8 24 14 12 12 10 7
242 34 250 157 191 227 74 28 21 31 42 79 112 114 129 148 151 154 185 188 175 185 184 176 185 180 187 185 209 266 289 285 302 354 346 348 351 350 358 356 357 1 1 357
298 105 110 183 8 7 25 36 12 63 55 85 105 95 50 138 160 196 176 176 185 186 188 177 174 203 197 203 263 278 207 80 50 25 354 348 352 348 352 355 346 348 351 344
161 40 49 303 305 339 335 319 147 79 58 49 95 84 9 69 180 164 166 171 173 174 176 184 211 216 204 232 281 288 259 298 314 339 355 328 330 324 320 332 332 334 337 333
27 63 3 281 313 342 67 250 129 114 101 92 70 143 185 199 183 162 160 165 177 186 205 240 272 212 221 257 294 297 304 304 300 292 293 306 305 306 299 304 320 324 323 327
6 57 334 350 358 155 125 94 123 160 185 203 227 237 222 173 169 170 173 179 188 200 227 246 207 205 255 301 18 20 343 327 320 309 291 287 290 301 301 294 300 317 318 313
146 216 263 335 41 106 107 113 107 125 133 121 145 147 152 156 149 209 203 202 207 216 229 234 248 265 272 310 301 311 297 306 309 305 303 289 282 291 295 294 291 300 311 309
63 313 337 84 102 115 117 122 140 155 149 133 150 169 175 197 202 206 193 194 208 219 238 251 260 266 280 289 288 283 281 294 306 302 298 291 293 288 287 294 296 305 305 311
100 265 116 136 143 126 154 148 138 158 191 179 193 198 207 223 231 245 238 231 237 249 254 262 262 267 280 287 282 282 284 285 294 295 291 294 287 283 278 284 296 303 303 311
218 202 188 184 174 167 183 164 175 169 190 203 233 241 238 255 261 264 263 260 257 258 255 283 273 272 282 278 277 278 276 282 288 292 294 287 288 272 254 280 291 291 298 312
209 191 194 155 158 173 195 194 210 238 230 224 236 268 246 249 250 256 262 267 275 275 274 281 278 282 285 287 281 281 277 285 290 288 290 289 287 271 282 256 267 288 310 307
151 154 167 189 222 235 248 250 215 222 239 232 237 257 251 259 258 255 288 270 281 281 280 273 274 274 280 288 284 278 292 299 297 293 300 291 300 323 282 289 291 306 300 312
180 184 212 220 242 220 216 235 224 223 290 277 241 221 280 283 256 269 282 285 289 285 293 284 288 287 298 297 289 289 298 298 298 289 300 308 311 292 289 327 314 305 315 320
220 224 201 224 230 234 247 263 272 268 263 283 222 232 253 262 274 274 288 289 287 291 290 292 292 301 298 299 311 308 297 295 291 282 345 359 332 297 307 311 309 315 321 315
198 208 226 244 266 272 267 235 236 232 236 245 216 228 245 257 259 287 301 304 308 311 306 297 305 305 310 317 322 313 304 293 239 238 245 305 294 324 315 305 312 320 318 311
236 251 243 262 251 265 256 245 247 236 245 235 249 227 252 272 296 309 320 319 318 319 325 317 314 317 319 319 319 319 305 277 183 234 273 284 324 325 315 317 322 323 320 319
231 260 259 247 245 252 238 241 251 260 266 265 244 258 271 265 305 303 325 321 323 338 331 328 331 325 327 317 319 321 288 227 202 199 295 317 330 339 336 340 337 335 324 317
250 242 247 256 250 251 253 252 249 259 262 269 262 260 265 270 267 285 343 341 324 331 334 328 329 327 323 318 329 336 172 162 3 346 344 322 319 332 332 332 335 339 338 323
239 242 255 262 245 245 240 237 242 248 263 281 299 276 265 257 260 262 305 299 302 323 322 321 323 330 323 309 294 235 243 280 316 313 308 311 323 324 320 326 327 329 335 334
243 239 243 235 227 235 233 235 240 248 251 269 281 287 260 256 261 259 274 289 295 296 309 310 306 318 321 309 281 265 258 256 289 307 298 296 311 313 317 314 321 320 322 326
237 235 248 234 222 228 219 233 258 250 242 246 278 275 278 274 266 261 274 284 284 275 292 304 293 292 307 304 300 266 243 266 291 303 303 302 307 312 311 313 307 311 310 318
231 237 238 230 220 239 253 255 260 256 240 254 267 260 278 284 277 275 276 281 271 273 285 287 281 279 282 292 288 282 265 271 274 286 296 297 302 305 308 311 311 308 306 315
241 228 240 232 226 235 247 254 251 260 245 263 248 258 260 274 281 272 268 275 276 275 278 282 274 274 274 274 277 273 270 277 277 277 284 291 301 305 303 304 304 305 307 311
261 249 236 227 234 243 255 246 248 253 252 242 231 237 277 278 274 271 270 272 277 274 272 277 277 274 269 268 262 265 263 271 269 270 278 283 286 302 308 304 302 305 307 312
258 266 249 233 231 246 264 249 244 236 240 237 232 242 260 283 280 271 271 272 283 277 267 270 277 277 273 268 263 262 260 259 258 264 275 287 308 316 312 302 304 306 309 311